Weather observations for the past three days for
Madison, Dane County Regional-Truax Field
Imperial (Metric)
Date Time (cdt) Wind (mph) Vis. (mi.) Weather Sky Cond. Temperature (ºF) Relative Humidity Wind Chill (°F) Heat Index (°F) Pressure Precipitation (in)
Air Dwpt 6 hour altimeter (in) sea level (mb) 1 hr 3 hr 6 hr
Max. Min.
24 01:53 Calm 10.00 Fair CLR 64 61 90% 29.91 1012.3
24 00:53 Calm 10.00 Fair CLR 66 61 78.1 66 84% 29.9 1012.1
23 23:53 NW 3 10.00 Fair CLR 68 61 78% 29.9 1012.0
23 22:53 Calm 10.00 A Few Clouds FEW100 66.9 62.1 84% 29.89 1011.8
23 21:53 Calm 10.00 Mostly Cloudy BKN100 69.1 62.1 78% 29.87 1011.2
23 20:53 Calm 10.00 Mostly Cloudy FEW045 BKN090 69.1 63 81% 29.86 1010.9
23 19:53 Calm 10.00 A Few Clouds FEW045 FEW100 75.9 61 60% 78 29.86 1010.7
23 18:53 NW 5 10.00 A Few Clouds FEW045 77 60.1 78.1 70 56% 79 29.85 1010.3
23 17:53 NW 6 10.00 A Few Clouds FEW036 78.1 61 56% 80 29.85 1010.4
23 16:53 NW 9 10.00 Partly Cloudy SCT031 77 60.1 56% 79 29.86 1010.4
23 15:53 NW 7 10.00 Partly Cloudy SCT028 75.9 61 60% 78 29.85 1010.3
23 14:53 N 8 10.00 Mostly Cloudy BKN025 BKN032 72 62.1 71% 29.86 1010.5
23 13:53 N 7 10.00 Mostly Cloudy BKN024 72 61 68% 29.86 1010.7
23 12:53 N 8 10.00 Mostly Cloudy BKN019 70 60.1 71.1 66 71% 29.85 1010.4
23 11:53 NW 13 G 21 10.00 Overcast BKN016 OVC022 68 59 73% 29.85 1010.5
23 10:53 NW 9 G 18 10.00 Light Drizzle BKN016 OVC022 66.9 59 76% 29.83 1009.8
23 09:53 NW 13 G 24 10.00 Overcast BKN016 OVC023 66.9 59 76% 29.81 1009.1
23 08:53 NW 9 G 20 10.00 Overcast OVC015 66.9 60.1 79% 29.79 1008.4
23 07:53 NW 8 G 20 10.00 Overcast BKN021 OVC028 68 62.1 81% 29.76 1007.5
23 06:53 NW 9 10.00 Overcast BKN015 OVC023 68 63 70 68 84% 29.74 1006.7
23 05:53 NW 10 G 21 10.00 Mostly Cloudy BKN013 BKN022 BKN033 69.1 64 84% 29.72 1005.9
23 04:53 W 7 10.00 Overcast FEW010 OVC042 69.1 66 90% 29.7 1005.0
23 03:53 NW 6 10.00 Overcast FEW010 SCT023 OVC037 69.1 66 90% 29.7 1005.1
23 02:53 Calm 10.00 Overcast SCT015 OVC034 69.1 66 90% 29.7 1005.1
23 01:53 Calm 10.00 Mostly Cloudy BKN020 BKN026 69.1 66 90% 29.7 1005.2
23 00:53 NW 5 10.00 Overcast OVC018 70 66.9 72 69.1 90% 29.71 1005.4 1.24
22 23:53 Calm 10.00 Overcast OVC017 70 66.9 90% 29.69 1004.9
22 22:53 Calm 10.00 Overcast FEW006 OVC010 71.1 68 90% 29.7 1005.0
22 21:53 NW 5 10.00 Overcast BKN007 OVC013 71.1 68 90% 29.67 1004.1 1.24
22 20:53 Vrbl 6 10.00 Mostly Cloudy FEW007 BKN120 BKN170 BKN250 71.1 68 90% 29.67 1004.2
22 19:53 N 7 5.00 Thunderstorm Rain Fog/Mist FEW005 BKN023CB BKN120 BKN250 70 68 93% 29.64 1003.3 1.24
22 17:53 SE 12 10.00 Mostly Cloudy FEW045 FEW060 SCT100 BKN250 80.1 72 76% 84 29.63 1002.8
22 16:53 SW 8 10.00 Mostly Cloudy FEW041 BKN070 BKN080 BKN250 79 71.1 77% 82 29.73 1006.2
22 15:53 Vrbl 7 10.00 Overcast FEW006 FEW044 BKN070 OVC250 78.1 72 82% 80 29.76 1007.2 0.01 0.01
22 14:53 S 12 G 16 10.00 Mostly Cloudy BKN017 BKN070 BKN250 79 71.1 77% 82 29.78 1007.9
22 13:53 SW 8 G 18 10.00 Mostly Cloudy BKN023 BKN075 BKN250 80.1 70 71% 83 29.79 1008.3
22 12:53 SW 8 G 21 10.00 Mostly Cloudy BKN025 BKN034 BKN250 81 71.1 81 73 72% 85 29.81 1008.8 0.25
22 11:53 SW 9 10.00 Overcast BKN017 BKN033 OVC100 78.1 70 76% 80 29.82 1009.1
22 10:53 S 13 G 21 10.00 Overcast BKN015 BKN024 OVC036 73.9 70 88% 29.83 1009.6 0.15
22 09:53 Vrbl 7 4.00 Rain Fog/Mist FEW014 BKN080 OVC110 73.9 70 88% 29.87 1010.8 0.1 0.1
22 08:53 SW 7 9.00 Light Rain FEW050 SCT100 OVC120 75 70 84% 75 29.88 1011.3
22 07:53 S 10 10.00 Overcast BKN080 OVC110 73.9 70 88% 29.88 1011.3
22 06:53 S 7 10.00 Mostly Cloudy BKN100 BKN130 BKN200 73 69.1 73 69.1 87% 29.89 1011.7 0.08
22 05:53 SE 6 6.00 Fog/Mist FEW044 BKN100 OVC210 71.1 68 90% 29.92 1012.7
22 04:53 E 3 4.00 Fog/Mist FEW006 BKN041 OVC055 70 66.9 90% 29.93 1013.2
22 03:53 S 8 5.00 Thunderstorm in Vicinity Fog/Mist OVC005 69.1 66.9 93% 29.97 1014.2 0.07 0.08
22 02:53 S 10 7.00 Mostly Cloudy SCT005 SCT075 BKN095 70 66.9 90% 29.99 1015.0
22 01:53 SE 7 6.00 Fog/Mist FEW045 70 66.9 90% 30 1015.1 0.01
22 00:53 SE 10 8.00 Thunderstorm in Vicinity Light Rain FEW007 BKN085 OVC110 71.1 69.1 73.9 71.1 94% 30.02 1016.0 0.16 0.2
21 23:53 SE 8 7.00 Light Rain BKN110 72 69.1 91% 30.03 1016.5 0.03
21 22:53 E 5 10.00 Light Rain BKN120 73 69.1 87% 30.05 1017.1 0.01
21 21:53 N 8 10.00 Mostly Cloudy SCT010 BKN065 BKN100 73 70 90% 30.07 1017.6
21 20:53 N 6 10.00 Overcast OVC009 73 70 90% 30.06 1017.5
21 19:53 E 7 10.00 Mostly Cloudy SCT038CB BKN055 BKN250 73.9 70 88% 30.05 1017.2
21 18:53 E 5 10.00 Mostly Cloudy SCT032TCU BKN065 BKN250 73.9 71.1 84.9 73 91% 30.05 1017.3 0.12 0.36
21 17:53 Vrbl 5 7.00 Thunderstorm Light Rain FEW010 OVC035CB 73.9 71.1 91% 30.09 1018.4 0.07
21 16:53 N 9 10.00 Thunderstorm Light Rain BKN032CB BKN110 BKN250 73.9 69.1 85% 30.08 1018.0 0.16
21 15:53 NE 8 10.00 Thunderstorm BKN028CB BKN060 BKN250 77 66.9 71% 79 30.08 1017.9 0.01 0.01
21 14:53 S 9 10.00 Thunderstorm BKN027CB BKN170 BKN250 84 72 67% 90 30.08 1018.0
21 13:53 S 8 10.00 Partly Cloudy SCT028CB 84 72 67% 90 30.11 1019.1
21 12:53 S 12 G 17 10.00 A Few Clouds FEW075 FEW120 81 70 81 68 69% 84 30.14 1020.0
21 11:53 S 8 10.00 Mostly Cloudy SCT095 BKN120 78.1 68 71% 80 30.16 1020.9
21 10:53 S 6 10.00 Mostly Cloudy BKN048 BKN110 75.9 66.9 74% 77 30.18 1021.5
21 09:53 S 5 10.00 Mostly Cloudy FEW015 BKN110 75 66 74% 76 30.19 1022.1
21 08:53 S 5 10.00 Mostly Cloudy FEW011 BKN080 BKN250 72 64.9 79% 30.2 1022.4
21 07:53 E 5 10.00 Overcast OVC010 70 64 82% 30.22 1022.9
21 06:53 SE 6 8.00 Overcast OVC010 68 64 70 66.9 87% 30.22 1023.1
21 05:53 E 6 10.00 Mostly Cloudy FEW012 BKN049 BKN070 66.9 63 87% 30.24 1023.5
21 04:53 E 5 10.00 A Few Clouds FEW046 66.9 63 87% 30.22 1023.0
21 03:53 SE 6 10.00 Mostly Cloudy BKN010 BKN015 BKN055 68 64 87% 30.22 1022.8
21 02:53 SE 6 10.00 Overcast OVC012 70 64.9 84% 30.23 1023.2
Date Time (cdt) Wind (mph) Vis. (mi.) Weather Sky Cond. Air Dwpt Max. Min. Relative Humidity Wind Chill (°F) Heat Index (°F) altimeter (in) sea level (mb) 1 hr 3 hr 6 hr
6 hour
Temperature (ºF) Pressure Precipitation (in)